Location: Be?chatów
(51.3665°N, 19.3745°E)
Time: 22:23:55
(UTC+00:00)

Cosmos 1536 - Pass Details

Date: 19 May 2025
Orbit: 494 x 518 km, 82.5° (Epoch: 16 June)

Event Time Altitude Azimuth Distance (km) Brightness Sun altitude
Rises 21:30:52 0° 340° (NNW) 2,642 8.1 -17.1°
Reaches altitude 10° 21:33:13 10° 329° (NNW) 1,746 6.6 -17.2°
Maximum altitude 21:36:29 27° 270° (W) 999 4.3 -17.4°
Enters shadow 21:38:17 19° 227° (SW) 1,268 4.4 -17.4°
